Location: Waldport
(44.4270°N, 124.0680°W)
Time: 10:03:14
(UTC-07:00)

ATLAS 5 CENTAUR R/B - Pass Details

Date: 23 June 2018
Orbit: 598 x 1061 km, 63.4° (Epoch: 17 September)

Event Time Altitude Azimuth Distance (km) Brightness Sun altitude
Exits shadow 22:37:24 18° 162° (SSE) 1,546 3.0 -12.8°
Maximum altitude 22:39:50 29° 115° (ESE) 1,189 2.5 -13.1°
Drops below altitude 10° 22:43:56 10° 56° (NE) 2,137 4.3 -13.5°
Sets 22:46:38 0° 46° (NE) 3,133 5.3 -13.8°
